Wind_Speed
16 15 15 14 13 13 12 12 12 13 13 14 14 14 15 16 18 18 18 18 20 19 19 18 18 18 17 17 16 15 15 16 15 13 12 12 12 11 11 10 9 9
15 15 15 15 13 12 12 12 13 13 14 14 14 14 14 15 17 18 18 18 18 18 18 18 18 18 17 17 16 15 16 17 16 14 12 13 12 11 11 11 10 10
14 14 15 15 13 11 10 11 13 13 13 14 14 14 14 14 15 17 18 19 17 16 17 17 17 17 17 17 16 15 15 16 15 13 13 13 13 11 11 11 10 10
13 14 14 13 13 11 10 11 12 12 13 13 13 14 14 14 14 15 17 19 19 17 16 17 17 17 17 17 17 16 15 16 16 15 15 15 14 12 11 11 11 10
12 13 14 13 13 12 12 11 11 12 12 13 13 14 15 16 16 15 16 18 20 18 17 16 16 16 17 17 17 16 15 15 15 15 16 15 14 12 11 11 12 11
12 13 14 14 14 14 12 11 11 11 12 12 13 13 14 15 17 17 16 16 18 18 17 16 15 15 15 16 17 17 16 15 14 14 15 15 14 12 11 12 12 12
12 12 13 14 14 14 12 10 10 11 11 12 12 13 14 14 16 17 18 17 16 17 17 16 16 16 15 15 17 18 18 17 15 16 17 16 14 13 13 12 12 13
11 12 13 14 14 13 11 9 10 11 12 12 12 13 14 14 15 16 17 18 17 17 16 16 16 17 16 16 16 17 18 17 16 17 18 17 15 14 14 13 12 12
11 12 13 14 14 13 11 10 12 12 12 12 12 13 13 14 15 15 16 18 18 17 17 17 16 17 16 16 17 17 17 16 15 15 16 15 15 14 13 13 13 12
11 12 13 13 13 13 13 13 14 13 13 13 12 12 13 13 14 15 16 17 18 18 18 18 17 17 16 16 17 17 17 17 16 16 16 15 14 14 13 13 13 12
10 11 11 12 13 14 14 14 14 13 13 13 13 12 12 13 13 14 16 17 18 18 18 18 18 18 17 17 16 16 16 17 17 18 18 16 15 15 14 14 13 13
9 9 9 10 13 14 14 13 13 13 13 13 13 13 13 13 13 14 15 16 17 17 17 18 19 19 19 18 17 16 16 16 17 18 18 17 16 16 16 15 15 15
9 9 9 9 10 11 11 12 12 12 13 13 13 13 14 14 14 14 14 15 16 17 17 17 19 19 20 19 18 17 17 16 16 17 17 17 17 16 16 16 16 16
9 9 9 9 9 9 9 10 11 12 12 13 13 14 14 14 14 15 15 15 15 16 16 17 18 19 20 20 20 19 19 17 17 17 17 17 17 16 16 16 17 17
11 10 9 8 8 8 8 9 10 12 12 13 15 15 15 15 15 15 15 16 16 16 16 17 17 18 19 20 20 19 19 19 18 18 18 18 17 17 17 16 17 18
11 12 12 11 10 9 10 10 10 11 12 14 15 16 17 17 18 17 16 16 16 17 17 17 18 18 19 21 21 19 18 17 18 18 18 19 19 18 18 18 18 19
7 9 10 11 11 11 11 11 11 11 11 13 14 15 17 17 18 19 19 17 17 17 18 18 19 19 20 23 24 22 20 18 17 18 18 20 21 21 21 20 19 20
5 5 8 9 10 11 11 11 13 13 13 13 13 14 15 16 17 18 18 18 17 18 18 19 18 19 22 24 24 22 22 21 18 17 17 19 20 22 22 21 20 20
5 5 7 8 9 10 11 12 13 13 13 13 13 14 15 15 16 17 17 17 17 17 19 19 18 19 22 24 23 22 23 23 21 19 19 19 20 22 23 23 22 21
5 6 6 6 8 9 10 12 13 13 13 13 13 14 16 15 15 16 17 19 19 19 19 19 19 21 22 23 23 23 23 24 23 22 22 22 22 23 24 23 23 23
6 6 5 6 6 7 8 9 10 11 12 12 12 13 15 16 16 16 17 18 19 19 19 19 19 21 23 25 25 23 24 25 25 24 23 22 23 24 24 24 23 23
5 4 4 4 5 6 6 6 7 8 10 11 11 12 13 14 17 18 18 17 17 18 18 18 19 20 23 25 26 25 25 26 26 26 25 25 25 25 25 25 25 24
4 4 3 4 4 5 5 5 6 7 8 9 10 11 11 12 13 15 17 18 18 18 17 17 18 20 22 24 25 25 25 26 25 25 25 27 26 26 25 24 25 26
4 4 3 4 4 4 5 5 6 6 7 8 9 10 11 11 11 13 15 17 18 18 17 16 17 20 22 23 24 24 23 24 24 23 24 24 24 23 24 24 24 26
4 4 4 4 4 4 5 6 6 6 7 8 8 9 10 10 11 11 12 14 17 18 18 17 18 20 21 21 23 23 23 23 23 24 25 24 22 24 26 26 24 22
3 3 2 2 4 4 4 5 5 5 6 6 7 8 8 8 9 10 11 15 17 19 20 20 20 21 21 21 21 22 23 23 23 24 24 22 23 24 25 25 24 23
Wind_Direction
242 236 234 234 236 236 236 237 237 235 231 227 227 227 223 220 218 214 213 218 224 224 225 228 229 232 234 236 240 241 243 246 246 250 257 260 263 265 269 273 275 279
238 231 231 233 234 235 237 238 235 233 232 228 224 223 221 219 219 216 214 216 221 222 224 227 227 230 233 235 239 242 245 248 247 248 255 260 263 265 266 269 271 273
232 228 230 234 235 236 238 241 239 236 234 232 228 224 221 218 218 217 215 215 217 219 224 227 227 229 232 234 239 242 244 246 245 242 245 253 259 261 264 267 268 270
231 227 228 233 236 237 237 239 241 239 236 233 230 228 224 218 216 218 219 218 215 215 220 226 228 229 231 233 238 241 241 242 241 238 241 249 256 258 261 265 266 269
230 229 228 232 235 235 234 234 237 238 236 235 231 228 227 222 216 214 218 221 219 218 220 227 230 230 231 234 237 239 238 239 241 244 248 252 256 258 260 263 264 266
230 232 232 233 234 234 233 233 235 236 236 236 234 229 228 227 222 216 214 218 221 221 222 227 231 231 232 235 240 239 236 235 236 242 250 254 254 254 255 259 261 263
230 235 236 234 236 236 234 232 235 237 236 235 234 232 228 226 224 219 214 214 217 220 222 225 227 227 226 230 238 240 238 236 233 235 245 251 251 251 251 253 257 261
229 236 238 235 236 236 232 233 238 239 237 233 231 232 231 226 223 221 219 216 215 218 221 222 226 229 227 226 233 240 241 239 237 242 249 251 249 250 251 251 254 258
232 237 239 237 237 235 230 233 239 238 236 233 229 229 231 229 224 221 221 219 217 218 219 220 223 230 230 229 231 236 239 237 234 240 247 249 248 249 251 251 253 255
237 237 239 242 242 239 233 232 235 235 234 233 230 227 229 230 227 222 223 225 221 219 220 220 221 225 229 230 233 236 238 237 234 234 238 242 244 245 248 248 250 252
237 235 235 240 241 236 234 234 234 232 231 230 229 228 226 228 230 226 224 227 226 223 224 224 222 224 227 229 231 234 237 237 236 237 238 240 243 244 246 247 248 250
241 235 224 229 235 232 233 236 235 232 232 231 229 228 227 227 229 229 227 228 228 226 227 228 228 227 228 230 229 231 235 237 237 239 240 242 245 247 248 249 250 251
245 242 228 227 234 234 235 238 236 233 231 231 232 231 229 228 228 229 229 229 229 228 226 228 230 229 229 231 230 228 232 236 238 239 242 244 246 247 248 250 252 254
235 245 243 240 239 236 237 240 239 236 232 231 232 232 231 230 230 229 230 230 230 229 226 226 229 231 232 232 232 231 232 236 239 241 242 243 246 247 248 250 252 254
224 231 238 241 243 243 241 239 236 235 234 231 230 231 230 229 228 228 229 230 229 227 226 224 225 228 231 232 232 233 234 237 239 241 242 243 244 246 247 248 251 254
222 225 227 228 231 236 238 238 238 238 237 234 233 234 232 228 227 226 226 228 228 228 227 226 225 226 228 229 228 228 231 235 237 239 241 242 243 244 247 249 249 253
232 231 231 229 229 232 233 233 234 236 239 239 238 240 238 234 232 230 228 228 228 229 227 227 228 227 228 231 231 230 230 231 235 239 240 242 243 244 247 250 251 253
249 243 241 240 237 238 240 238 234 232 233 236 238 242 242 238 235 235 233 231 231 232 230 229 230 229 232 237 238 234 233 232 234 238 240 242 244 244 245 247 250 252
254 253 255 252 245 245 246 245 244 241 237 235 235 237 238 238 239 239 236 233 231 231 232 231 232 233 236 242 242 237 235 235 235 236 238 240 242 244 246 246 247 251
256 258 262 258 251 250 248 246 247 247 245 242 240 238 236 237 242 241 239 239 236 232 232 233 233 234 237 242 244 240 237 236 236 238 240 242 244 247 250 249 250 252
263 262 264 262 256 254 251 251 251 249 248 246 245 243 238 235 237 238 241 245 243 237 236 236 236 236 238 243 245 243 239 237 237 238 241 244 247 249 250 250 250 252
264 265 265 263 262 258 258 259 256 253 252 248 246 248 244 238 235 234 235 240 242 241 241 241 241 240 240 244 246 244 241 239 239 241 243 245 247 250 252 252 252 252
263 267 272 269 268 267 271 272 264 259 256 251 250 250 249 247 243 238 234 233 236 240 240 240 244 245 242 244 246 245 243 242 241 243 246 247 249 252 252 254 257 257
265 269 280 285 279 278 283 280 274 269 262 255 252 248 246 248 246 240 237 234 234 239 239 238 242 245 244 244 247 248 246 245 244 244 246 248 250 251 251 256 263 264
281 285 290 295 292 291 291 282 273 274 273 268 263 258 254 251 244 239 240 237 232 232 233 233 236 242 244 246 248 250 249 247 246 245 246 248 251 253 257 259 262 265
303 306 307 317 313 305 299 290 279 275 279 280 273 265 261 255 244 234 233 234 233 231 231 231 234 240 245 247 248 250 251 250 251 250 250 252 254 256 260 261 259 262
Height
1544 1544 1545 1546 1547 1547 1548 1549 1549 1549 1550 1551 1552 1552 1552 1553 1554 1555 1556 1557 1558 1559 1560 1561 1562 1563 1564 1565 1566 1567 1568 1569 1569 1570 1571 1571 1571 1571 1571 1571 1572 1572
1542 1543 1543 1544 1545 1545 1546 1547 1547 1547 1548 1548 1549 1550 1551 1551 1552 1553 1554 1555 1556 1557 1558 1559 1560 1561 1562 1563 1564 1565 1566 1567 1568 1569 1570 1570 1569 1570 1570 1570 1570 1570
1541 1541 1542 1543 1543 1544 1545 1545 1545 1545 1546 1546 1547 1548 1549 1550 1551 1551 1553 1554 1555 1556 1557 1558 1559 1560 1561 1561 1562 1563 1564 1565 1566 1567 1568 1568 1568 1568 1569 1569 1569 1569
1539 1540 1541 1542 1542 1543 1543 1544 1544 1543 1544 1545 1545 1546 1547 1548 1549 1550 1551 1552 1553 1555 1556 1556 1557 1558 1559 1560 1561 1562 1563 1563 1564 1565 1566 1566 1566 1567 1567 1568 1568 1568
1538 1539 1539 1540 1541 1541 1542 1542 1543 1543 1543 1543 1544 1544 1545 1546 1547 1549 1550 1550 1551 1553 1554 1555 1555 1556 1557 1558 1559 1560 1561 1562 1562 1563 1563 1564 1565 1565 1566 1566 1566 1567
1537 1537 1537 1538 1539 1539 1539 1540 1541 1542 1542 1542 1542 1543 1543 1544 1545 1547 1548 1549 1550 1551 1553 1553 1554 1555 1556 1557 1557 1558 1559 1560 1561 1562 1562 1562 1563 1564 1565 1565 1565 1565
1535 1535 1536 1537 1537 1538 1538 1539 1540 1540 1541 1541 1541 1541 1542 1542 1543 1544 1546 1547 1549 1550 1551 1552 1553 1553 1555 1556 1556 1556 1557 1558 1559 1560 1560 1561 1561 1562 1563 1564 1564 1564
1534 1534 1534 1535 1535 1536 1536 1537 1538 1539 1539 1539 1540 1540 1540 1541 1542 1543 1544 1545 1547 1548 1549 1550 1551 1551 1553 1554 1554 1555 1555 1556 1557 1558 1558 1559 1560 1560 1561 1562 1562 1562
1532 1532 1533 1533 1534 1534 1535 1536 1537 1538 1537 1537 1538 1539 1539 1539 1540 1541 1542 1543 1544 1546 1547 1548 1549 1549 1551 1552 1552 1553 1553 1554 1556 1557 1557 1557 1558 1558 1559 1560 1561 1561
1529 1530 1531 1531 1532 1534 1534 1535 1536 1536 1536 1536 1536 1537 1538 1538 1539 1540 1541 1541 1542 1543 1544 1545 1547 1548 1549 1550 1550 1551 1552 1552 1554 1554 1555 1556 1556 1557 1558 1559 1559 1559
1528 1528 1529 1529 1530 1532 1532 1533 1533 1534 1534 1534 1535 1536 1536 1537 1537 1538 1539 1539 1540 1541 1542 1543 1544 1545 1546 1547 1548 1549 1550 1550 1551 1552 1553 1553 1554 1555 1556 1557 1557 1557
1527 1527 1527 1528 1529 1530 1530 1530 1531 1531 1532 1533 1533 1534 1535 1535 1536 1536 1537 1537 1538 1539 1540 1541 1542 1543 1543 1544 1546 1547 1548 1548 1549 1550 1551 1552 1552 1553 1554 1554 1555 1555
1526 1525 1525 1526 1527 1527 1527 1527 1528 1528 1530 1531 1531 1532 1533 1533 1534 1535 1535 1535 1536 1537 1538 1539 1539 1540 1541 1542 1543 1544 1545 1546 1547 1548 1549 1550 1551 1551 1552 1552 1552 1553
1524 1524 1524 1524 1524 1524 1525 1525 1525 1526 1527 1528 1529 1529 1530 1531 1532 1533 1533 1534 1534 1535 1536 1537 1537 1538 1538 1539 1540 1541 1543 1544 1545 1546 1547 1548 1549 1549 1550 1550 1550 1550
1522 1522 1522 1523 1523 1522 1523 1523 1523 1524 1524 1525 1526 1526 1527 1528 1529 1530 1531 1532 1532 1533 1533 1534 1535 1536 1536 1537 1538 1539 1540 1542 1543 1544 1545 1545 1546 1547 1548 1548 1548 1548
1520 1520 1520 1521 1521 1521 1521 1521 1521 1521 1522 1522 1522 1523 1524 1525 1526 1527 1528 1529 1530 1530 1531 1532 1532 1533 1534 1534 1535 1537 1538 1539 1540 1541 1542 1543 1543 1544 1545 1545 1545 1545
1518 1518 1518 1518 1518 1519 1519 1519 1520 1520 1520 1520 1520 1521 1521 1522 1523 1523 1524 1526 1527 1528 1529 1529 1529 1530 1530 1531 1532 1534 1535 1536 1537 1538 1539 1539 1540 1540 1541 1542 1542 1542
1516 1516 1515 1515 1515 1516 1516 1516 1517 1517 1518 1518 1519 1519 1519 1519 1520 1520 1521 1522 1524 1525 1526 1526 1526 1527 1527 1527 1529 1531 1532 1533 1534 1535 1536 1536 1536 1537 1538 1538 1539 1539
1514 1514 1513 1513 1513 1513 1513 1513 1514 1514 1515 1516 1516 1517 1517 1517 1517 1518 1519 1519 1520 1521 1522 1522 1524 1524 1524 1525 1526 1528 1529 1530 1531 1532 1532 1533 1533 1533 1534 1535 1535 1536
1512 1511 1511 1511 1511 1511 1511 1511 1511 1512 1512 1512 1513 1514 1514 1515 1515 1516 1516 1516 1516 1517 1518 1519 1520 1520 1521 1522 1523 1524 1525 1526 1527 1528 1528 1529 1529 1530 1530 1531 1532 1533
1510 1509 1509 1509 1509 1509 1509 1509 1509 1509 1509 1509 1510 1510 1511 1512 1513 1513 1513 1513 1513 1514 1514 1515 1516 1517 1518 1519 1520 1521 1522 1523 1524 1524 1525 1525 1526 1526 1527 1527 1528 1529
1508 1507 1507 1507 1507 1507 1507 1507 1507 1507 1507 1507 1507 1507 1508 1508 1509 1510 1511 1511 1511 1511 1512 1512 1513 1514 1515 1516 1516 1518 1519 1519 1520 1521 1521 1522 1522 1523 1523 1524 1525 1526
1507 1506 1506 1506 1506 1505 1505 1505 1505 1505 1505 1504 1504 1505 1505 1505 1506 1507 1508 1508 1509 1509 1509 1510 1510 1511 1512 1512 1513 1514 1515 1516 1517 1517 1518 1518 1519 1520 1520 1521 1522 1523
1505 1505 1505 1504 1504 1503 1503 1503 1503 1503 1503 1502 1502 1502 1502 1503 1504 1504 1505 1506 1506 1507 1507 1508 1508 1507 1508 1509 1510 1511 1512 1512 1513 1514 1514 1515 1515 1516 1517 1518 1520 1521
1504 1504 1503 1503 1503 1502 1502 1502 1501 1501 1500 1500 1500 1500 1500 1501 1501 1502 1503 1503 1504 1504 1504 1505 1505 1504 1505 1506 1507 1508 1508 1509 1510 1510 1510 1511 1512 1513 1514 1516 1518 1518
1503 1503 1502 1502 1501 1501 1500 1500 1500 1499 1499 1498 1498 1498 1498 1499 1499 1500 1501 1500 1501 1501 1501 1502 1502 1502 1503 1504 1504 1505 1505 1506 1506 1506 1507 1509 1509 1510 1511 1512 1513 1514